Total_Precipitation_Accumulation
0.04 0.02 0.01 0.01 0.01 0.01 0.01 0.00 0.00 0.00 0.01 0.01 0.00 0.00 0.00 0.00 0.00 0.00 0.00 0.00 0.00 0.00 0.00 0.00 0.00 0.00 0.00 0.00 0.00 0.00 0.00 0.00 0.00 0.00 0.00 0.00 0.00 0.00 0.00 0.00 0.00 0.00 0.00 0.00 0.00 0.00 0.00
0.04 0.03 0.02 0.02 0.01 0.01 0.00 0.00 0.00 0.00 0.00 0.00 0.00 0.00 0.00 0.01 0.01 0.00 0.00 0.00 0.00 0.00 0.00 0.00 0.00 0.00 0.00 0.00 0.00 0.00 0.00 0.00 0.00 0.00 0.00 0.00 0.00 0.00 0.00 0.00 0.00 0.00 0.00 0.00 0.00 0.00 0.00
0.12 0.08 0.05 0.03 0.01 0.00 0.00 0.00 0.00 0.00 0.00 0.00 0.00 0.00 0.00 0.00 0.00 0.00 0.00 0.00 0.00 0.00 0.00 0.00 0.00 0.00 0.00 0.00 0.00 0.00 0.00 0.00 0.00 0.00 0.00 0.00 0.00 0.00 0.00 0.00 0.00 0.00 0.00 0.00 0.00 0.00 0.00
0.12 0.13 0.11 0.08 0.03 0.00 0.00 0.00 0.00 0.00 0.00 0.00 0.00 0.00 0.00 0.00 0.00 0.00 0.00 0.00 0.00 0.00 0.00 0.00 0.00 0.00 0.00 0.00 0.00 0.00 0.00 0.00 0.00 0.00 0.00 0.00 0.00 0.00 0.00 0.00 0.00 0.00 0.00 0.00 0.00 0.00 0.00
0.16 0.14 0.13 0.09 0.08 0.04 0.01 0.00 0.00 0.00 0.00 0.00 0.00 0.00 0.00 0.00 0.00 0.00 0.00 0.00 0.00 0.00 0.00 0.00 0.00 0.00 0.00 0.00 0.00 0.00 0.00 0.00 0.00 0.00 0.00 0.00 0.00 0.00 0.00 0.00 0.00 0.00 0.00 0.00 0.00 0.00 0.00
0.20 0.20 0.18 0.15 0.09 0.06 0.03 0.01 0.00 0.00 0.00 0.00 0.00 0.00 0.00 0.00 0.00 0.00 0.00 0.00 0.00 0.00 0.00 0.00 0.00 0.00 0.00 0.00 0.00 0.00 0.00 0.00 0.00 0.00 0.00 0.00 0.00 0.00 0.00 0.00 0.00 0.00 0.00 0.00 0.00 0.00 0.00
0.34 0.24 0.14 0.11 0.08 0.07 0.03 0.03 0.01 0.00 0.00 0.00 0.00 0.00 0.00 0.00 0.00 0.00 0.00 0.00 0.00 0.00 0.00 0.00 0.00 0.00 0.00 0.00 0.00 0.00 0.00 0.00 0.00 0.00 0.00 0.00 0.00 0.00 0.00 0.00 0.00 0.00 0.00 0.00 0.00 0.00 0.00
0.45 0.40 0.33 0.24 0.13 0.07 0.05 0.01 0.00 0.00 0.00 0.00 0.00 0.00 0.00 0.00 0.00 0.00 0.00 0.00 0.00 0.00 0.00 0.00 0.00 0.00 0.00 0.00 0.00 0.00 0.00 0.00 0.00 0.00 0.00 0.00 0.00 0.00 0.00 0.00 0.00 0.00 0.00 0.00 0.00 0.00 0.00
0.62 0.56 0.45 0.30 0.21 0.12 0.10 0.06 0.02 0.00 0.00 0.00 0.00 0.00 0.00 0.00 0.00 0.00 0.00 0.00 0.00 0.00 0.00 0.00 0.00 0.00 0.00 0.00 0.00 0.00 0.00 0.00 0.00 0.00 0.00 0.00 0.00 0.00 0.00 0.00 0.00 0.00 0.00 0.00 0.00 0.00 0.00
0.59 0.49 0.42 0.29 0.21 0.14 0.10 0.07 0.05 0.02 0.00 0.00 0.00 0.00 0.00 0.00 0.00 0.00 0.00 0.00 0.00 0.00 0.00 0.00 0.00 0.00 0.00 0.00 0.00 0.00 0.00 0.00 0.00 0.00 0.00 0.00 0.00 0.00 0.00 0.00 0.00 0.00 0.00 0.00 0.00 0.00 0.00
0.47 0.42 0.38 0.30 0.17 0.08 0.04 0.02 0.02 0.02 0.01 0.00 0.00 0.00 0.00 0.00 0.00 0.00 0.00 0.00 0.00 0.00 0.00 0.00 0.00 0.00 0.00 0.00 0.00 0.00 0.00 0.00 0.00 0.00 0.00 0.00 0.00 0.00 0.00 0.00 0.00 0.00 0.00 0.00 0.00 0.00 0.00
0.29 0.25 0.21 0.16 0.09 0.05 0.04 0.02 0.01 0.01 0.01 0.01 0.00 0.00 0.00 0.00 0.00 0.00 0.00 0.00 0.00 0.00 0.00 0.00 0.00 0.00 0.00 0.00 0.00 0.00 0.00 0.00 0.00 0.00 0.00 0.00 0.00 0.00 0.00 0.00 0.00 0.00 0.00 0.00 0.00 0.00 0.00
0.25 0.21 0.17 0.14 0.10 0.07 0.07 0.04 0.02 0.02 0.02 0.02 0.01 0.00 0.00 0.00 0.00 0.00 0.00 0.01 0.01 0.00 0.00 0.00 0.00 0.00 0.00 0.00 0.00 0.00 0.00 0.00 0.00 0.00 0.00 0.00 0.00 0.00 0.00 0.00 0.00 0.00 0.00 0.00 0.00 0.00 0.00
0.15 0.13 0.11 0.09 0.08 0.05 0.05 0.05 0.04 0.02 0.02 0.03 0.03 0.02 0.01 0.00 0.00 0.00 0.02 0.07 0.01 0.00 0.00 0.00 0.00 0.00 0.00 0.00 0.00 0.00 0.00 0.00 0.00 0.00 0.00 0.00 0.00 0.00 0.00 0.00 0.00 0.00 0.00 0.00 0.00 0.00 0.00
0.07 0.07 0.06 0.07 0.06 0.06 0.06 0.05 0.04 0.04 0.04 0.05 0.06 0.08 0.07 0.02 0.00 0.00 0.07 0.05 0.00 0.00 0.00 0.00 0.00 0.00 0.00 0.00 0.00 0.00 0.01 0.01 0.02 0.07 0.16 0.08 0.01 0.00 0.00 0.00 0.00 0.00 0.00 0.00 0.01 0.01 0.00
0.06 0.05 0.04 0.05 0.06 0.06 0.06 0.05 0.04 0.05 0.08 0.11 0.16 0.18 0.05 0.04 0.11 0.17 0.22 0.03 0.00 0.00 0.00 0.00 0.00 0.00 0.00 0.00 0.00 0.00 0.00 0.00 0.02 0.03 0.09 0.15 0.11 0.00 0.00 0.00 0.00 0.00 0.00 0.03 0.13 0.11 0.05
0.06 0.04 0.04 0.04 0.07 0.06 0.07 0.06 0.06 0.06 0.11 0.24 0.31 0.27 0.02 0.08 0.41 0.56 0.58 0.08 0.00 0.00 0.00 0.00 0.00 0.00 0.00 0.00 0.00 0.00 0.00 0.00 0.01 0.03 0.04 0.08 0.17 0.04 0.01 0.04 0.01 0.03 0.02 0.09 0.24 0.30 0.24
0.06 0.04 0.03 0.03 0.10 0.16 0.17 0.11 0.08 0.10 0.15 0.37 0.47 0.49 0.10 0.29 0.44 0.46 0.31 0.07 0.00 0.00 0.00 0.00 0.00 0.00 0.00 0.00 0.00 0.00 0.00 0.01 0.01 0.00 0.00 0.01 0.10 0.06 0.01 0.00 0.01 0.05 0.09 0.23 0.73 0.68 0.54
0.05 0.04 0.02 0.02 0.06 0.14 0.19 0.25 0.19 0.16 0.20 0.31 0.78 0.53 0.19 0.56 0.62 0.23 0.04 0.02 0.01 0.00 0.00 0.01 0.01 0.00 0.00 0.00 0.02 0.00 0.00 0.00 0.00 0.00 0.01 0.02 0.09 0.07 0.01 0.01 0.03 0.09 0.18 0.21 0.37 0.58 0.53
0.06 0.06 0.05 0.05 0.06 0.12 0.19 0.25 0.29 0.36 0.44 0.42 0.74 0.80 0.46 0.55 0.50 0.33 0.29 0.28 0.22 0.09 0.05 0.05 0.10 0.07 0.07 0.05 0.04 0.04 0.01 0.01 0.01 0.00 0.01 0.06 0.05 0.04 0.02 0.00 0.04 0.10 0.09 0.06 0.16 0.37 0.21
0.06 0.06 0.06 0.06 0.07 0.07 0.13 0.20 0.29 0.39 0.63 0.82 0.94 0.64 0.22 0.38 0.29 0.27 0.37 0.42 0.22 0.08 0.04 0.04 0.11 0.04 0.07 0.15 0.10 0.08 0.05 0.03 0.02 0.01 0.02 0.04 0.03 0.01 0.00 0.00 0.00 0.00 0.01 0.03 0.06 0.08 0.14
0.07 0.07 0.06 0.07 0.07 0.12 0.14 0.15 0.20 0.38 0.66 0.84 0.92 0.53 0.25 0.08 0.04 0.12 0.22 0.27 0.19 0.11 0.17 0.18 0.25 0.17 0.19 0.26 0.18 0.16 0.14 0.13 0.10 0.08 0.10 0.11 0.07 0.04 0.01 0.00 0.01 0.02 0.01 0.00 0.00 0.00 0.00
0.08 0.08 0.08 0.07 0.06 0.07 0.13 0.18 0.20 0.28 0.86 1.16 0.72 0.34 0.37 0.33 0.16 0.25 0.11 0.04 0.05 0.07 0.08 0.09 0.16 0.25 0.20 0.18 0.19 0.21 0.15 0.15 0.13 0.10 0.11 0.15 0.19 0.20 0.15 0.02 0.07 0.12 0.00 0.00 0.00 0.00 0.00
0.08 0.07 0.08 0.10 0.11 0.10 0.12 0.20 0.23 0.26 0.60 0.64 0.31 0.24 0.40 0.35 0.22 0.15 0.06 0.05 0.04 0.07 0.13 0.08 0.12 0.15 0.15 0.05 0.06 0.04 0.04 0.03 0.03 0.02 0.05 0.07 0.09 0.19 0.18 0.13 0.26 0.04 0.00 0.00 0.00 0.00 0.00
0.03 0.06 0.09 0.10 0.07 0.10 0.11 0.15 0.25 0.29 0.41 0.44 0.53 0.40 0.44 0.37 0.18 0.16 0.18 0.21 0.12 0.06 0.06 0.11 0.12 0.08 0.08 0.09 0.22 0.24 0.18 0.16 0.04 0.00 0.00 0.01 0.07 0.19 0.21 0.13 0.06 0.00 0.00 0.00 0.00 0.00 0.00
0.02 0.02 0.03 0.06 0.08 0.09 0.09 0.09 0.14 0.32 0.67 0.38 0.35 0.48 0.53 0.46 0.25 0.23 0.30 0.17 0.30 0.28 0.17 0.19 0.13 0.08 0.13 0.19 0.35 0.33 0.19 0.13 0.09 0.04 0.01 0.01 0.04 0.21 0.18 0.16 0.04 0.00 0.00 0.00 0.03 0.03 0.00
0.01 0.02 0.04 0.06 0.08 0.09 0.08 0.08 0.09 0.15 0.67 0.62 0.26 0.21 0.40 0.46 0.11 0.10 0.23 0.28 0.33 0.39 0.37 0.32 0.29 0.25 0.26 0.32 0.22 0.11 0.10 0.05 0.07 0.05 0.08 0.16 0.21 0.22 0.13 0.13 0.01 0.00 0.00 0.01 0.12 0.07 0.01
0.00 0.00 0.03 0.05 0.06 0.07 0.08 0.12 0.11 0.10 0.24 0.41 0.39 0.27 0.30 0.32 0.09 0.03 0.08 0.18 0.27 0.45 0.62 0.51 0.62 0.56 0.61 0.47 0.31 0.16 0.07 0.02 0.03 0.00 0.01 0.11 0.35 0.40 0.37 0.42 0.16 0.00 0.01 0.03 0.02 0.01 0.02
0.01 0.01 0.01 0.02 0.02 0.04 0.07 0.09 0.10 0.10 0.18 0.13 0.23 0.17 0.44 0.71 0.24 0.03 0.01 0.04 0.15 0.21 0.31 0.72 0.88 0.64 0.87 0.85 0.50 0.29 0.21 0.15 0.09 0.05 0.02 0.02 0.02 0.07 0.26 0.28 0.06 0.02 0.04 0.06 0.09 0.17 0.21